LU8FJH-13 Weather Reports


time (UTC)temp
C
wind
direction
speed
KPH
gust
KPH
rain 1hr
cm
rain 24hr
cm
rain mn
cm
humidity
%
barometer
mb
20260507213404 16 90 3.2 11.3 0.00 2.39 2.39 52 1005.8
20260507212504 16 90 3.2 16.1 0.00 2.39 2.39 51 1005.6
20260507211604 16 78 6.4 16.1 0.00 2.39 2.39 51 1005.6
20260507210704 16 127 6.4 22.5 0.00 2.39 2.39 51 1005.2
20260507205804 16 95 6.4 12.9 0.00 2.39 2.39 51 1005.3
20260507204904 16 115 3.2 14.5 0.00 2.39 2.39 51 1005.3
20260507204004 16 97 6.4 16.1 0.00 2.39 2.39 50 1005.6
20260507203104 16 116 9.7 17.7 0.00 2.39 2.39 50 1005.4
20260507202204 16 115 4.8 17.7 0.00 2.39 2.39 49 1005.7
20260507201304 17 96 6.4 19.3 0.00 2.39 2.39 48 1005.6
20260507200404 17 136 3.2 22.5 0.00 2.39 2.39 47 1005.3
20260507195504 17 128 11.3 22.5 0.00 2.39 2.39 47 1005.6
20260507194604 17 161 6.4 30.6 0.00 2.39 2.39 45 1005.6
20260507193704 17 144 6.4 20.9 0.00 2.39 2.39 45 1005.4
20260507192804 17 134 12.9 20.9 0.00 2.39 2.39 44 1004.8
20260507191904 18 105 6.4 17.7 0.00 2.39 2.39 43 1004.5
20260507191004 18 106 9.7 20.9 0.00 2.39 2.39 43 1003.9
20260507190104 18 157 4.8 25.7 0.00 2.39 2.39 42 1003.8
20260507185204 18 131 8.0 25.7 0.00 2.39 2.39 41 1003.7
20260507184304 18 110 6.4 19.3 0.00 2.39 2.39 41 1003.7
20260507183404 18 164 4.8 17.7 0.00 2.39 2.39 43 1003.1
20260507182504 17 211 6.4 24.1 0.00 2.39 2.39 47 1003.7
20260507181604 17 154 9.7 17.7 0.00 2.39 2.39 48 1004.3
20260507180704 17 133 3.2 17.7 0.00 2.39 2.39 50 1004.5
20260507175804 16 99 8.0 17.7 0.00 2.39 2.39 52 1004.4
20260507174904 16 163 4.8 16.1 0.00 2.39 2.39 53 1004.9
20260507174004 16 156 6.4 12.9 0.00 2.39 2.39 54 1005.3
20260507173104 16 188 3.2 17.7 0.00 2.39 2.39 53 1005.5
20260507172204 16 210 6.4 20.9 0.00 2.39 2.39 53 1006.2
20260507171304 16 179 6.4 17.7 0.00 2.39 2.39 53 1006.2
20260507170404 16 211 9.7 16.1 0.00 2.39 2.39 54 1006.6
20260507165504 15 142 3.2 17.7 0.00 2.39 2.39 56 1006.9
20260507164604 15 152 3.2 19.3 0.00 2.39 2.39 56 1006.8
20260507163704 15 147 6.4 25.7 0.00 2.39 2.39 56 1006.4
20260507162804 15 161 6.4 22.5 0.00 2.39 2.39 58 1006.7
20260507161903 15 151 3.2 17.7 0.00 2.39 2.39 58 1006.2
20260507161004 15 196 6.4 16.1 0.00 2.39 2.39 58 1005.6
20260507160104 15 176 6.4 17.7 0.00 2.39 2.39 59 1005.9
20260507155204 15 171 3.2 19.3 0.00 2.39 2.39 60 1005.4
20260507154303 15 135 3.2 14.5 0.00 2.39 2.39 61 1004.8
20260507153403 15 135 6.4 14.5 0.00 2.39 2.39 62 1005.5
20260507152504 15 135 4.8 12.9 0.00 2.39 2.39 63 1006.2
20260507151603 15 135 6.4 14.5 0.00 2.39 2.39 62 1006.9
20260507150704 15 132 6.4 17.7 0.00 2.39 2.39 61 1007.4
20260507145803 15 139 6.4 16.1 0.00 2.39 2.39 61 1007.9
20260507144904 15 146 3.2 16.1 0.00 2.39 2.39 61 1008.0
20260507144004 15 159 4.8 14.5 0.00 2.39 2.39 60 1007.9
20260507143103 15 190 4.8 14.5 0.00 2.39 2.39 60 1006.6
20260507142204 15 186 6.4 20.9 0.00 2.39 2.39 61 1005.8
20260507141304 16 173 8.0 20.9 0.00 2.39 2.39 61 1006.3
20260507140403 16 179 3.2 12.9 0.00 2.39 2.39 61 1006.0
20260507135504 16 161 6.4 17.7 0.00 2.39 2.39 60 1006.1
20260507134603 16 108 6.4 22.5 0.00 2.39 2.39 60 1005.8
20260507133704 16 164 6.4 22.5 0.00 2.39 2.39 61 1005.4
20260507132803 16 121 8.0 16.1 0.00 2.39 2.39 61 1005.3
20260507131903 16 151 3.2 16.1 0.00 2.39 2.39 62 1005.7
20260507131003 16 83 8.0 17.7 0.00 2.39 2.39 64 1006.1
20260507130103 16 155 6.4 17.7 0.00 2.39 2.39 66 1006.3
20260507125203 16 182 9.7 12.9 0.00 2.39 2.39 65 1006.2
20260507124304 16 201 3.2 12.9 0.00 2.39 2.39 64 1005.7
20260507123403 16 110 3.2 12.9 0.00 2.39 2.39 63 1005.7
20260507122504 16 150 3.2 17.7 0.00 2.39 2.39 62 1005.5
20260507121603 16 139 6.4 17.7 0.00 2.39 2.39 63 1005.2
20260507120703 16 88 3.2 9.7 0.00 2.39 2.39 63 1004.6
20260507115803 16 111 1.6 12.9 0.00 2.39 2.39 62 1004.5
20260507114904 17 106 1.6 12.9 0.00 2.39 2.39 62 1004.4
20260507114003 17 140 1.6 8.0 0.00 2.39 2.39 63 1005.4
20260507113103 17 91 3.2 9.7 0.00 2.39 2.39 64 1004.7
20260507112203 17 77 4.8 12.9 0.00 2.39 2.39 63 1003.7
20260507111303 17 144 1.6 14.5 0.00 2.39 2.39 65 1004.5
20260507110403 17 146 4.8 17.7 0.00 2.39 2.39 69 1003.8
20260507105503 17 144 6.4 27.4 0.00 2.39 2.39 71 1002.0
20260507104603 17 132 9.7 22.5 0.00 2.39 2.39 78 1002.0
20260507103703 17 135 9.7 20.9 0.00 2.39 2.39 81 1001.6
20260507102803 17 165 11.3 19.3 0.00 2.39 2.39 86 1001.2
20260507101903 18 207 11.3 24.1 0.00 2.39 2.39 85 1000.4
20260507101003 18 153 12.9 24.1 0.00 2.39 2.39 84 1001.2
20260507100103 18 156 8.0 24.1 0.00 2.39 2.39 84 1001.7
20260507095203 18 141 6.4 17.7 0.00 2.39 2.39 84 1002.7
20260507094303 18 158 8.0 19.3 0.00 2.39 2.39 84 1002.4
20260507093403 18 152 6.4 20.9 0.00 2.39 2.39 84 1002.2
20260507092503 18 140 6.4 25.7 0.00 2.39 2.39 85 1002.2
20260507091603 18 139 9.7 19.3 0.00 2.39 2.39 87 1002.4
20260507090703 18 126 3.2 12.9 0.00 2.39 2.39 88 1002.9
20260507085803 18 151 6.4 12.9 0.00 2.39 2.39 92 1003.2
20260507084903 18 179 3.2 12.9 0.00 2.39 2.39 93 1003.3
20260507084003 18 117 6.4 12.9 0.00 2.39 2.39 94 1003.7
20260507083103 19 135 4.8 12.9 0.00 2.39 2.39 95 1003.2
20260507082203 18 148 3.2 6.4 0.00 2.39 2.39 95 1003.0
20260507081303 19 134 1.6 12.9 0.00 2.39 2.39 96 1003.5
20260507080403 18 133 1.6 14.5 0.00 2.39 2.39 96 1003.1
20260507075503 18 126 6.4 17.7 0.00 2.39 2.39 96 1002.8
20260507074603 19 172 3.2 12.9 0.00 2.39 2.39 96 1002.6
20260507073703 19 140 3.2 9.7 0.00 2.39 2.39 96 1001.8
20260507072803 19 111 1.6 6.4 0.00 2.39 2.39 96 1002.0
20260507071903 19 113 1.6 6.4 0.00 2.39 2.39 96 1001.9
20260507071003 19 101 1.6 8.0 0.00 2.39 2.39 96 1001.7
20260507065203 19 136 1.6 6.4 0.00 2.39 2.39 96 1001.9
20260507064303 20 108 3.2 6.4 0.00 2.39 2.39 96 1001.8
20260507063403 20 117 1.6 6.4 0.00 2.39 2.39 96 1001.6
20260507062503 20 117 1.6 3.2 0.03 2.44 2.39 96 1001.4
20260507061603 20 147 0.0 3.2 0.03 2.46 2.39 96 1001.2
20260507060703 20 108 1.6 9.7 0.03 2.46 2.39 96 1001.5
20260507055803 19 142 3.2 4.8 0.03 2.46 2.39 96 1001.4
20260507054903 20 134 0.0 3.2 0.03 2.46 2.39 96 1001.7
20260507054003 19 166 0.0 6.4 0.03 2.46 2.39 96 1001.6
20260507053103 20 154 0.0 8.0 0.00 2.44 2.36 95 1001.8
20260507052203 20 115 0.0 3.2 0.00 2.44 2.36 95 1001.4
20260507051303 20 116 0.0 6.4 0.36 2.44 2.36 95 1001.6
20260507050403 20 151 0.0 12.9 1.17 2.44 2.36 95 1001.6
20260507045503 20 158 6.4 16.1 1.70 2.44 2.36 95 1001.4
20260507044603 21 145 6.4 17.7 2.21 2.44 2.36 93 1000.8
20260507043703 21 165 6.4 20.9 2.36 2.44 2.36 93 1001.0
20260507042803 20 229 3.2 17.7 2.36 2.44 2.36 93 1000.6
20260507041903 20 155 4.8 30.6 2.29 2.34 2.31 92 1000.6
20260507041003 21 169 11.3 19.3 1.50 1.55 1.60 91 1001.2
20260507035203 22 258 6.4 14.5 0.43 0.48 0.51 88 999.6
20260507034303 23 346 4.8 12.9 0.05 0.13 0.10 83 999.0
20260507033403 24 29 3.2 8.0 0.00 0.05 0.00 81 999.2
20260507032503 25 300 3.2 11.3 0.00 0.05 0.00 78 999.1
20260507031603 25 322 3.2 8.0 0.00 0.05 0.00 76 999.8
20260507030703 25 288 1.6 6.4 0.00 0.05 0.00 75 999.3
20260507025803 25 286 0.0 6.4 0.00 0.05 0.05 75 999.9
20260507024902 25 29 1.6 4.8 0.00 0.05 0.05 75 1000.3
20260507024002 25 3 1.6 6.4 0.00 0.05 0.05 75 1000.2
20260507023102 25 299 3.2 9.7 0.00 0.05 0.05 75 1000.9
20260507022203 25 359 1.6 6.4 0.00 0.05 0.05 75 1000.8
20260507021302 25 34 1.6 9.7 0.00 0.05 0.05 75 1001.1
20260507020402 25 303 1.6 8.0 0.00 0.05 0.05 75 1001.1
20260507015503 25 351 1.6 6.4 0.00 0.05 0.05 75 1001.5
20260507014602 25 338 1.6 8.0 0.00 0.05 0.05 75 1001.6
20260507013703 25 341 4.8 8.0 0.00 0.05 0.05 75 1001.7
20260507012802 25 34 3.2 11.3 0.00 0.05 0.05 75 1001.2
20260507011902 26 358 1.6 11.3 0.00 0.05 0.05 74 1001.3
20260507011002 26 1 3.2 6.4 0.00 0.05 0.05 75 1001.4
20260507005202 26 345 1.6 4.8 0.00 0.05 0.05 75 1002.1
20260507004303 26 199 1.6 6.4 0.00 0.05 0.05 73 1002.8
20260507003402 26 92 0.0 3.2 0.00 0.05 0.05 73 1002.4
20260507002503 26 281 0.0 3.2 0.00 0.05 0.05 72 1002.4
20260507001602 26 292 1.6 3.2 0.00 0.05 0.05 72 1002.2
20260507000702 26 320 0.0 6.4 0.00 0.05 0.05 72 1001.9
20260506235803 26 333 3.2 6.4 0.00 0.05 0.05 72 1001.9
20260506234902 26 9 0.0 8.0 0.00 0.05 0.05 72 1001.6
20260506234003 26 353 4.8 12.9 0.00 0.05 0.05 71 1001.4
20260506233102 26 258 3.2 11.3 0.00 0.05 0.05 71 1001.5
20260506232202 26 322 1.6 9.7 0.00 0.05 0.05 71 1001.6
20260506231302 26 303 3.2 9.7 0.00 0.05 0.05 71 1001.5
20260506230402 27 328 0.0 11.3 0.00 0.05 0.05 69 1001.5
20260506225502 27 310 4.8 14.5 0.00 0.05 0.05 69 1001.2
20260506224602 27 10 3.2 11.3 0.00 0.05 0.05 69 1001.3
20260506223702 27 63 3.2 9.7 0.00 0.05 0.05 69 1001.3
20260506222802 27 353 1.6 6.4 0.00 0.05 0.05 68 1000.9
20260506221902 27 302 3.2 6.4 0.00 0.05 0.05 68 1001.2
20260506221002 27 291 3.2 6.4 0.00 0.05 0.05 68 1000.9
20260506215202 27 277 1.6 6.4 0.00 0.05 0.05 66 1000.8
20260506214302 28 43 0.0 8.0 0.00 0.05 0.05 65 1000.6